Overview Statistics Trail Chart Weather Telemetry Raw packets
 

This is the latest recevied weather packets stored in our database for station/object K0APR. If no packets are shown the sender has not sent any weather packets the latest 10 day(s).

<< 45 46 47 48 49 50 51 >>
Time Temp. Humidity Pressure Rain* Wind** Luminosity Snow
1788360136 19.44° C 91% 1013 hPa 0 mm - 36 W/m² -
1788359831 19.44° C 91% 1013 hPa 0 mm - 40 W/m² -
1788359526 19.44° C 90% 1013.3 hPa 0 mm - 42 W/m² -
1788359223 19.44° C 90% 1013.3 hPa 0 mm - 43 W/m² -
1788358918 20° C 90% 1013.3 hPa 0 mm - 46 W/m² -
1788358617 20° C 90% 1013.7 hPa 0 mm - 53 W/m² -
1788358313 19.44° C 90% 1013.3 hPa 0 mm - 71 W/m² -
1788358009 19.44° C 90% 1013.7 hPa 0 mm - 89 W/m² -
1788357708 19.44° C 90% 1013.3 hPa 0 mm - 134 W/m² -
1788357407 19.44° C 90% 1013.3 hPa 0 mm - 253 W/m² -
1788357103 19.44° C 91% 1013.7 hPa 0 mm - 220 W/m² -
1788356798 18.89° C 92% 1013.3 hPa 0 mm - 193 W/m² -
1788356498 18.89° C 92% 1013.7 hPa 0 mm - 178 W/m² -
1788356193 18.89° C 92% 1013.3 hPa 0 mm - 147 W/m² -
1788355893 18.89° C 92% 1013.7 hPa 0 mm - 119 W/m² -
1788355589 18.33° C 92% 1013.3 hPa 0 mm - 129 W/m² -
1788355284 18.33° C 92% 1012.7 hPa 0 mm - 125 W/m² -
1788354980 18.33° C 93% 1012.7 hPa 0 mm - 85 W/m² -
1788354675 18.33° C 93% 1012.7 hPa 0 mm - 51 W/m² -
1788354371 17.78° C 94% 1012.7 hPa 0 mm - 42 W/m² -
1788354066 17.78° C 94% 1013 hPa 0 mm - 46 W/m² -
1788353762 17.22° C 95% 1013 hPa 0 mm - 66 W/m² -
1788353457 17.22° C 95% 1013 hPa 0 mm - 50 W/m² -
1788353154 17.22° C 95% 1013 hPa 0 mm - 45 W/m² -
1788352853 17.22° C 96% 1013.3 hPa 0 mm - 43 W/m² -

* Rain latest hour (hover to see other rain measurements)
** Current wind speed in m/s (hover to see current wind gust speed)